Date,TemperatureHighF,TemperatureAvgF,TemperatureLowF,DewpointHighF,DewpointAvgF,DewpointLowF,HumidityHigh,HumidityAvg,HumidityLow,PressureMaxIn,PressureMinIn,WindSpeedMaxMPH,WindSpeedAvgMPH,GustSpeedMaxMPH,PrecipitationSumIn
2013-10-1,54.0,51.8,50.0,50.0,48.9,47.0,94,88,81,30.27,30.19,4,3,10,0.04
2013-10-2,57.0,50.2,47.0,49.0,47.2,44.0,95,89,72,30.27,30.15,7,3,16,0.01
2013-10-3,57.0,51.7,47.0,49.0,46.5,44.0,91,82,66,30.50,30.23,8,4,17,0.01
2013-10-4,68.0,52.7,44.0,51.0,46.4,43.0,96,80,49,30.55,30.44,5,2,15,0.00
2013-10-5,70.0,55.9,48.0,52.0,46.5,44.0,91,73,39,30.46,30.24,4,2,12,0.00
2013-10-6,69.0,57.2,49.0,51.0,47.8,45.0,86,72,46,30.26,30.03,5,2,14,0.00
2013-10-7,60.0,54.8,52.0,53.0,50.3,46.0,93,85,60,30.17,30.04,7,5,15,0.04
2013-10-8,54.0,51.7,46.0,51.0,48.6,44.0,93,88,81,30.18,30.04,9,6,17,0.03
2013-10-9,61.0,49.0,41.0,52.0,44.7,40.0,96,85,61,30.19,30.04,6,2,12,0.01
2013-10-10,60.0,53.1,48.0,51.0,47.2,46.0,94,81,62,30.13,30.01,7,4,18,0.00
2013-10-11,60.0,54.7,51.0,51.0,48.0,46.0,92,78,62,30.22,30.13,6,2,13,0.00
2013-10-12,55.0,51.2,47.0,51.0,46.3,-99.9,94,86,76,30.25,30.14,4,3,9,0.01
2013-10-13,62.0,50.3,43.0,51.0,45.7,42.0,96,85,66,30.37,30.25,5,2,12,0.01
2013-10-14,66.0,52.1,44.0,48.0,44.8,41.0,96,79,39,30.46,30.37,6,2,12,0.00
2013-10-15,66.0,53.9,48.0,47.0,41.8,38.0,81,65,36,30.44,30.24,8,4,19,0.00
2013-10-16,65.0,52.2,44.0,47.0,43.5,40.0,88,74,44,30.25,30.17,4,2,13,0.00
2013-10-17,68.0,53.6,45.0,50.0,45.0,42.0,89,74,47,30.31,30.23,4,2,10,0.00
2013-10-18,66.0,56.0,49.0,48.0,43.6,40.0,78,64,43,30.30,30.20,6,4,16,0.00
2013-10-19,67.0,53.1,45.0,47.0,42.8,-99.9,86,71,47,30.24,30.14,7,3,12,0.00
2013-10-20,68.0,54.3,46.0,52.0,47.8,44.0,94,80,50,30.24,30.14,4,2,9,0.00
2013-10-21,70.0,57.7,48.0,51.0,48.1,45.0,91,72,46,30.21,30.10,4,2,13,0.00
2013-10-22,69.0,60.0,54.0,53.0,48.3,45.0,75,65,51,30.18,30.07,7,3,16,0.00
2013-10-23,70.0,58.9,54.0,52.0,48.8,46.0,82,70,52,30.13,30.04,7,3,21,0.00
2013-10-24,69.0,58.6,53.0,52.0,48.8,47.0,84,71,49,30.15,30.06,5,3,16,0.00
2013-10-25,61.0,53.2,48.0,51.0,49.1,47.0,96,86,70,30.33,30.15,8,3,18,0.00
2013-10-26,63.0,53.3,49.0,50.0,46.0,-99.9,93,79,61,30.35,30.21,7,3,14,0.00
2013-10-27,53.0,51.0,48.0,50.0,47.9,45.0,95,89,84,30.22,29.90,10,5,24,0.01
2013-10-28,59.0,53.7,47.0,49.0,30.4,-99.9,95,45,28,29.98,29.90,15,9,36,0.00
2013-10-29,59.0,47.1,41.0,39.0,35.2,33.0,80,64,39,30.13,29.98,7,3,14,0.00
2013-10-30,57.0,47.3,38.0,42.0,38.0,35.0,92,72,47,30.23,30.13,8,3,17,0.00
2013-10-31,56.0,54.0,51.0,52.0,47.7,39.0,92,80,55,30.33,30.23,8,5,16,0.00